User: anonymous   Login
Location: Gwatt
(46.7204°N, 7.6223°E)
Time: 15:02:19
(UTC+00:00)
Language:

Explorer 11/Cluster Stage 4 - Orbit

View from above orbital plane
View from above orbital plane
View from above satellite
View from above satellite

Ground track
Ground track

The orbit data is extracted from the following two-line orbital elements,

1   107U 61013A   21025.19057144  .00000735  00000-0  78956-4 0  9994
2   107  28.7918   9.0349 0545919 327.4320  29.3663 14.09100593997077
Epoch (UTC): 25 January 2021 04:34:25
Eccentricity: 0.0545919
inclination: 28.7918°
perigee height: 467 km
apogee height: 1258 km
right ascension of ascending node: 9.0349°
argument of perigee: 327.4320°
revolutions per day: 14.09100593
mean anomaly at epoch: 29.3663°
orbit number at epoch: 99707

The dashed part of the orbit path shows where the satellite is in the earth's shadow,  

DLR